TimeMDT,TemperatureF,Dew PointF,Humidity,Sea Level PressureIn,VisibilityMPH,Wind Direction,Wind SpeedMPH,Gust SpeedMPH,PrecipitationIn,Events,Conditions,WindDirDegrees,DateUTC
12:53 AM,59.0,26.1,28,29.91,10.0,South,6.9,-,N/A,,Clear,190,2013-04-28 06:53:00
1:53 AM,63.0,30.9,30,29.89,10.0,South,10.4,-,N/A,,Clear,180,2013-04-28 07:53:00
2:53 AM,64.0,36.0,35,29.86,10.0,South,12.7,-,N/A,,Clear,190,2013-04-28 08:53:00
3:53 AM,63.0,41.0,45,29.86,10.0,South,9.2,-,N/A,,Clear,170,2013-04-28 09:53:00
4:53 AM,61.0,43.0,52,29.86,10.0,SSE,8.1,-,N/A,,Clear,150,2013-04-28 10:53:00
5:53 AM,57.0,42.1,57,29.88,10.0,SE,6.9,-,N/A,,Clear,140,2013-04-28 11:53:00
6:53 AM,57.0,41.0,55,29.91,10.0,SE,5.8,-,N/A,,Clear,140,2013-04-28 12:53:00
7:53 AM,64.0,42.1,45,29.91,10.0,ESE,3.5,-,N/A,,Clear,110,2013-04-28 13:53:00
8:53 AM,68.0,53.1,59,29.91,10.0,SSE,11.5,-,N/A,,Clear,150,2013-04-28 14:53:00
9:53 AM,72.0,54.0,53,29.89,10.0,SSE,8.1,-,N/A,,Clear,160,2013-04-28 15:53:00
10:53 AM,77.0,54.0,45,29.88,10.0,SSE,9.2,-,N/A,,Clear,150,2013-04-28 16:53:00
11:53 AM,81.0,46.9,30,29.86,10.0,SE,11.5,-,N/A,,Unknown,140,2013-04-28 17:53:00
12:53 PM,84.0,37.0,19,29.83,10.0,South,11.5,17.3,N/A,,Unknown,180,2013-04-28 18:53:00
1:53 PM,84.9,-9999,N/A,29.79,-9999.0,SE,8.1,-,N/A,,Unknown,130,2013-04-28 19:53:00
2:53 PM,84.9,30.9,14,29.76,10.0,SSW,12.7,23.0,N/A,,Mostly Cloudy,210,2013-04-28 20:53:00
3:53 PM,84.9,26.1,12,29.73,10.0,South,11.5,-,N/A,,Clear,180,2013-04-28 21:53:00
4:53 PM,84.9,26.1,12,29.71,10.0,South,9.2,16.1,N/A,,Clear,170,2013-04-28 22:53:00
5:53 PM,84.0,24.1,11,29.71,10.0,SW,5.8,-,N/A,,Clear,220,2013-04-28 23:53:00
6:53 PM,82.9,23.0,11,29.71,10.0,South,6.9,-,N/A,,Clear,180,2013-04-29 00:53:00
7:53 PM,75.9,23.0,14,29.71,10.0,SSE,8.1,-,N/A,,Clear,160,2013-04-29 01:53:00
8:53 PM,69.1,23.0,18,29.73,10.0,South,9.2,-,N/A,,Clear,170,2013-04-29 02:53:00
9:53 PM,68.0,26.1,21,29.74,10.0,South,9.2,-,N/A,,Clear,170,2013-04-29 03:53:00
10:53 PM,68.0,30.0,24,29.73,10.0,South,11.5,-,N/A,,Clear,180,2013-04-29 04:53:00
11:53 PM,66.9,32.0,27,29.74,10.0,South,11.5,-,N/A,,Clear,170,2013-04-29 05:53:00